G6212 Weather Reports


time (UTC)temp
C
wind
direction
speed
KPH
gust
KPH
rain 1hr
cm
rain 24hr
cm
rain mn
cm
humidity
%
barometer
mb
20260510083045 23 176 6.4 8.0 0.00 0.03 0.00 96
20260510082545 23 168 4.8 6.4 0.00 0.03 0.00 96
20260510082045 23 162 4.8 4.8 0.00 0.03 0.00 95
20260510081545 23 89 3.2 3.2 0.00 0.03 0.00 95
20260510081045 23 16 1.6 3.2 0.00 0.03 0.00 95
20260510080546 23 31 1.6 3.2 0.00 0.03 0.00 95
20260510080046 23 32 1.6 3.2 0.00 0.03 0.00 95
20260510075546 23 22 1.6 3.2 0.00 0.03 0.00 95
20260510075046 23 131 3.2 4.8 0.00 0.03 0.00 95
20260510074546 23 115 4.8 6.4 0.00 0.03 0.00 95
20260510074046 23 77 3.2 4.8 0.00 0.03 0.00 95
20260510073546 23 45 3.2 4.8 0.00 0.03 0.00 95
20260510073046 23 50 3.2 3.2 0.00 0.03 0.00 95
20260510072546 23 86 4.8 6.4 0.00 0.03 0.00 95
20260510072046 23 49 4.8 4.8 0.00 0.03 0.00 94
20260510071546 23 113 4.8 4.8 0.00 0.03 0.00 94
20260510071106 23 162 6.4 8.0 0.00 0.03 0.00 94
20260510070546 23 146 4.8 6.4 0.00 0.03 0.00 94
20260510070047 23 165 3.2 6.4 0.00 0.03 0.00 94
20260510065546 23 159 4.8 4.8 0.00 0.03 0.00 94
20260510065047 23 169 4.8 6.4 0.00 0.03 0.00 94
20260510064547 23 165 3.2 4.8 0.00 0.03 0.00 94
20260510064047 23 135 4.8 6.4 0.00 0.03 0.00 93
20260510063547 23 74 4.8 4.8 0.00 0.03 0.00 93
20260510063047 23 123 6.4 8.0 0.00 0.03 0.00 93
20260510062547 23 122 6.4 6.4 0.00 0.03 0.00 93
20260510062047 23 152 6.4 9.7 0.00 0.03 0.00 92
20260510061547 23 165 6.4 11.3 0.00 0.03 0.00 92
20260510061048 23 106 4.8 4.8 0.00 0.03 0.00 92
20260510060547 23 127 4.8 6.4 0.00 0.03 0.00 91
20260510060048 23 111 4.8 4.8 0.00 0.03 0.00 91
20260510055548 23 135 6.4 9.7 0.00 0.03 0.00 90
20260510055048 23 141 6.4 8.0 0.00 0.03 0.00 89
20260510054548 23 100 4.8 6.4 0.00 0.03 0.00 89
20260510054048 23 121 6.4 6.4 0.00 0.03 0.00 88
20260510053548 23 127 4.8 8.0 0.00 0.03 0.00 88
20260510053108 23 116 4.8 6.4 0.00 0.03 0.00 87
20260510052548 23 111 6.4 8.0 0.00 0.03 0.00 87
20260510052048 23 116 6.4 9.7 0.00 0.03 0.00 86
20260510051548 23 93 4.8 6.4 0.00 0.03 0.00 86
20260510051109 23 84 3.2 4.8 0.00 0.03 0.00 85
20260510050548 23 110 6.4 6.4 0.00 0.03 0.00 85
20260510050048 23 75 4.8 6.4 0.00 0.03 0.00 84
20260510045608 23 46 3.2 4.8 0.00 0.03 0.00 83
20260510045049 23 38 4.8 4.8 0.00 0.03 0.00 83
20260510044549 23 112 4.8 6.4 0.00 0.03 0.00 82
20260510044049 23 123 6.4 6.4 0.00 0.03 0.00 82
20260510043609 23 75 4.8 6.4 0.00 0.03 0.00 81
20260510043049 23 60 4.8 6.4 0.00 0.03 0.00 81
20260510042550 24 37 4.8 6.4 0.00 0.03 0.00 80
20260510042049 24 96 3.2 4.8 0.00 0.03 0.00 79
20260510041549 24 90 4.8 6.4 0.00 0.03 0.00 78
20260510041049 24 64 4.8 4.8 0.00 0.03 0.00 78
20260510040549 24 46 4.8 6.4 0.00 0.03 0.00 78
20260510040050 24 96 3.2 4.8 0.00 0.03 0.00 78
20260510035549 24 94 3.2 6.4 0.00 0.03 0.00 78
20260510035050 24 52 4.8 4.8 0.00 0.03 0.00 78
20260510034549 24 45 6.4 9.7 0.00 0.03 0.00 78
20260510034050 24 34 8.0 9.7 0.00 0.03 0.00 79
20260510033550 24 39 8.0 9.7 0.00 0.03 0.00 79
20260510033050 24 35 6.4 8.0 0.00 0.03 0.00 80
20260510032610 23 38 6.4 8.0 0.00 0.03 0.00 82
20260510032050 24 28 4.8 6.4 0.00 0.03 0.00 83
20260510031610 24 38 6.4 6.4 0.00 0.03 0.00 82
20260510031050 24 31 6.4 8.0 0.00 0.03 0.00 79
20260510030551 24 32 4.8 6.4 0.00 0.03 0.00 77
20260510030050 24 36 4.8 6.4 0.00 0.03 0.00 77
20260510025550 24 26 4.8 6.4 0.00 0.03 0.00 77
20260510025050 24 34 4.8 6.4 0.00 0.03 0.00 76
20260510024550 24 61 4.8 6.4 0.00 0.03 0.00 74
20260510024051 24 34 4.8 6.4 0.00 0.03 0.00 72
20260510023551 25 49 6.4 8.0 0.00 0.03 0.00 71
20260510023051 25 265 1.6 3.2 0.00 0.03 0.00 71
20260510022551 25 244 1.6 3.2 0.00 0.03 0.00 69
20260510022051 25 232 3.2 6.4 0.00 0.03 0.00 69
20260510021551 25 242 3.2 4.8 0.00 0.03 0.00 69
20260510021051 25 225 1.6 3.2 0.00 0.03 0.00 69
20260510020611 25 232 3.2 3.2 0.00 0.03 0.00 69
20260510020051 25 219 3.2 4.8 0.00 0.03 0.00 70
20260510015552 26 219 3.2 3.2 0.00 0.03 0.00 70
20260510015112 26 240 1.6 3.2 0.00 0.03 0.00 69
20260510014551 26 206 3.2 4.8 0.00 0.03 0.00 67
20260510014052 26 171 4.8 6.4 0.00 0.03 0.00 66
20260510013613 26 48 3.2 4.8 0.00 0.03 0.00 65
20260510013052 27 36 4.8 4.8 0.00 0.03 0.00 65
20260510012552 27 38 3.2 4.8 0.00 0.03 0.00 64
20260510012053 26 192 3.2 6.4 0.00 0.03 0.00 64
20260510011552 26 216 6.4 8.0 0.00 0.03 0.00 65
20260510011052 26 127 9.7 12.9 0.00 0.03 0.00 66
20260510010552 26 108 11.3 12.9 0.00 0.03 0.00 64
20260510010052 26 102 8.0 12.9 0.00 0.03 0.00 59
20260510005552 26 99 6.4 9.7 0.00 0.03 0.00 59
20260510005052 26 77 6.4 8.0 0.00 0.03 0.00 59
20260510004552 26 38 4.8 6.4 0.00 0.03 0.00 60
20260510004052 26 74 6.4 8.0 0.00 0.03 0.00 59
20260510003552 26 41 8.0 9.7 0.00 0.03 0.00 60
20260510003052 26 35 8.0 9.7 0.00 0.03 0.00 61
20260510002552 26 29 8.0 11.3 0.00 0.03 0.00 62
20260510002052 26 38 8.0 8.0 0.00 0.03 0.00 61
20260510001634 26 44 6.4 6.4 0.00 0.03 0.00 63
20260510001133 26 56 6.4 6.4 0.00 0.03 0.00 62
20260510000553 26 52 4.8 6.4 0.00 0.03 0.00 64
20260510000053 26 128 8.0 8.0 0.00 0.03 0.00 64
20260509235553 26 121 8.0 8.0 0.00 0.03 0.03 65
20260509235054 28 108 8.0 9.7 0.00 0.03 0.03 61
20260509234553 30 51 9.7 12.9 0.00 0.03 0.03 56
20260509234053 31 44 8.0 9.7 0.00 0.03 0.03 60
20260509233554 31 325 1.6 1.6 0.00 0.03 0.03 65
20260509233053 31 285 1.6 1.6 0.00 0.03 0.03 64
20260509232553 31 325 1.6 1.6 0.00 0.03 0.03 63
20260509232053 31 288 1.6 1.6 0.00 0.03 0.03 64
20260509231553 31 267 1.6 1.6 0.00 0.03 0.03 64
20260509231054 31 283 1.6 1.6 0.00 0.03 0.03 63
20260509230554 31 255 1.6 1.6 0.00 0.03 0.03 63
20260509230054 32 266 1.6 1.6 0.00 0.03 0.03 63
20260509225614 32 268 1.6 1.6 0.00 0.03 0.03 62
20260509225054 32 289 1.6 1.6 0.00 0.03 0.03 61
20260509224554 32 307 1.6 3.2 0.00 0.03 0.03 61
20260509224054 33 263 1.6 1.6 0.00 0.03 0.03 60
20260509223554 33 253 1.6 3.2 0.00 0.03 0.03 59
20260509223054 33 174 1.6 1.6 0.00 0.03 0.03 57
20260509222554 33 87 1.6 3.2 0.00 0.03 0.03 58
20260509222054 33 67 3.2 4.8 0.00 0.03 0.03 59
20260509221555 33 72 3.2 3.2 0.00 0.03 0.03 60
20260509221055 33 77 3.2 4.8 0.00 0.03 0.03 58
20260509220555 33 120 3.2 3.2 0.00 0.03 0.03 59
20260509220055 33 119 1.6 3.2 0.00 0.03 0.03 60
20260509215555 33 163 1.6 3.2 0.00 0.03 0.03 59
20260509215115 33 122 1.6 3.2 0.00 0.03 0.03 60
20260509214555 32 175 1.6 1.6 0.00 0.03 0.03 62
20260509214055 33 168 1.6 3.2 0.00 0.03 0.03 61
20260509213556 33 109 3.2 3.2 0.00 0.03 0.03 60
20260509213055 33 115 3.2 4.8 0.00 0.03 0.03 60
20260509212555 33 136 1.6 3.2 0.00 0.03 0.03 60
20260509212055 33 136 1.6 1.6 0.00 0.03 0.03 61
20260509211556 33 128 1.6 3.2 0.00 0.03 0.03 61
20260509211056 33 97 1.6 3.2 0.00 0.03 0.03 61
20260509210556 32 133 1.6 3.2 0.00 0.03 0.03 62
20260509210056 32 110 1.6 1.6 0.00 0.03 0.03 61
20260509205556 33 136 1.6 1.6 0.00 0.03 0.03 62
20260509205056 33 137 1.6 1.6 0.00 0.03 0.03 61
20260509204556 33 138 1.6 1.6 0.00 0.03 0.03 63
20260509204056 33 137 1.6 1.6 0.00 0.03 0.03 63
20260509203556 33 138 1.6 1.6 0.00 0.03 0.03 62
20260509203056 33 131 1.6 1.6 0.00 0.03 0.03 64
20260509202556 32 136 3.2 3.2 0.00 0.03 0.03 64
20260509202056 32 169 3.2 3.2 0.00 0.03 0.03 66
20260509201556 32 196 3.2 4.8 0.00 0.03 0.03 67
20260509201056 32 64 3.2 4.8 0.00 0.03 0.03 65
20260509200557 32 140 3.2 3.2 0.00 0.03 0.03 66
20260509200057 32 314 3.2 3.2 0.00 0.03 0.03 66
20260509195617 32 314 1.6 3.2 0.00 0.03 0.03 67
20260509195057 32 313 3.2 3.2 0.00 0.03 0.03 67
20260509194557 32 156 3.2 3.2 0.00 0.03 0.03 67
20260509194057 32 145 3.2 3.2 0.00 0.03 0.03 67
20260509193658 32 139 1.6 3.2 0.00 0.03 0.03 66
20260509193057 32 138 1.6 3.2 0.00 0.03 0.03 66
20260509192557 32 137 1.6 1.6 0.00 0.03 0.03 66
20260509192057 32 161 1.6 1.6 0.00 0.03 0.03 67
20260509191558 32 253 1.6 3.2 0.00 0.03 0.03 68
20260509191118 31 76 3.2 3.2 0.00 0.03 0.03 67
20260509190558 31 350 1.6 1.6 0.00 0.03 0.03 67
20260509190058 30 2 1.6 3.2 0.00 0.03 0.03 69
20260509185558 30 14 1.6 1.6 0.00 0.03 0.03 71
20260509185058 30 358 1.6 3.2 0.00 0.03 0.03 71
20260509184558 30 215 3.2 3.2 0.00 0.03 0.03 72
20260509184058 29 204 3.2 4.8 0.00 0.03 0.03 71
20260509183558 29 202 3.2 4.8 0.00 0.03 0.03 72
20260509183058 30 209 3.2 3.2 0.00 0.03 0.03 72
20260509182558 29 275 1.6 1.6 0.00 0.03 0.03 73
20260509182058 29 237 1.6 3.2 0.00 0.03 0.03 73
20260509181558 28 226 1.6 3.2 0.00 0.03 0.03 75
20260509181059 28 197 3.2 4.8 0.00 0.03 0.03 74
20260509180559 28 202 3.2 4.8 0.00 0.03 0.03 74
20260509180059 28 215 3.2 4.8 0.00 0.03 0.03 75
20260509175559 28 208 4.8 6.4 0.00 0.03 0.03 76
20260509175059 28 236 3.2 3.2 0.00 0.03 0.03 77
20260509174639 27 204 4.8 4.8 0.00 0.03 0.03 77
20260509174059 27 214 3.2 4.8 0.00 0.03 0.03 78
20260509173619 27 208 4.8 4.8 0.00 0.03 0.03 77
20260509173100 27 192 4.8 4.8 0.00 0.03 0.03 78
20260509172559 27 160 4.8 6.4 0.00 0.03 0.03 79
20260509172100 27 149 4.8 4.8 0.00 0.03 0.03 79
20260509171600 27 208 3.2 4.8 0.00 0.03 0.03 79
20260509171100 27 185 1.6 4.8 0.00 0.03 0.03 80
20260509170600 27 84 3.2 3.2 0.00 0.03 0.03 81
20260509170100 27 33 3.2 6.4 0.00 0.03 0.03 82
20260509165600 27 35 3.2 4.8 0.00 0.03 0.03 82
20260509165100 27 33 3.2 4.8 0.00 0.03 0.03 83
20260509164600 27 7 1.6 3.2 0.00 0.03 0.03 82
20260509164100 27 7 1.6 3.2 0.00 0.03 0.03 83
20260509163600 27 37 1.6 3.2 0.00 0.03 0.03 84
20260509163101 27 22 0.0 1.6 0.00 0.03 0.03 85
20260509162601 26 329 1.6 1.6 0.00 0.03 0.03 86
20260509162100 26 352 0.0 1.6 0.03 0.03 0.03 86
20260509161600 26 327 1.6 3.2 0.03 0.03 0.03 86
20260509161121 26 318 1.6 3.2 0.03 0.03 0.03 87
20260509160601 26 329 1.6 1.6 0.03 0.03 0.03 88
20260509160121 26 311 1.6 1.6 0.03 0.03 0.03 88
20260509155601 26 346 1.6 1.6 0.03 0.03 0.03 89
20260509155101 25 357 0.0 1.6 0.03 0.03 0.03 90
20260509154601 25 299 1.6 1.6 0.03 0.03 0.03 90
20260509154101 25 268 0.0 1.6 0.03 0.03 0.03 91
20260509153602 25 324 1.6 1.6 0.03 0.03 0.03 91
20260509153122 25 106 1.6 3.2 0.00 0.00 0.00 92
20260509152601 25 37 1.6 3.2 0.00 0.00 0.00 92
20260509152102 25 35 3.2 3.2 0.00 0.00 0.00 93
20260509151602 25 37 3.2 4.8 0.00 0.00 0.00 92
20260509151102 25 41 1.6 3.2 0.00 0.00 0.00 93
20260509150602 25 54 1.6 3.2 0.00 0.00 0.00 94
20260509145602 24 53 3.2 4.8 0.00 0.00 0.00 95
20260509144602 24 52 3.2 4.8 0.00 0.00 0.00 95
20260509144102 24 44 3.2 4.8 0.00 0.00 0.00 96
20260509143602 24 49 3.2 3.2 0.00 0.00 0.00 96
20260509143102 24 28 1.6 3.2 0.00 0.00 0.00 96
20260509142603 24 63 3.2 3.2 0.00 0.00 0.00 96
20260509142102 24 4 1.6 3.2 0.00 0.00 0.00 96
20260509141603 24 324 1.6 1.6 0.00 0.00 0.00 97
20260509141103 23 4 1.6 1.6 0.00 0.00 0.00 97
20260509140603 23 192 1.6 3.2 0.00 0.00 0.00 97
20260509140123 23 50 1.6 3.2 0.00 0.00 0.00 97
20260509135603 23 104 3.2 4.8 0.00 0.00 0.00 97
20260509135103 23 156 1.6 4.8 0.00 0.00 0.00 97
20260509134623 23 160 4.8 4.8 0.00 0.00 0.00 97
20260509134104 23 157 1.6 3.2 0.00 0.00 0.00 97
20260509133603 23 162 1.6 3.2 0.00 0.00 0.00 98
20260509133103 23 244 3.2 4.8 0.00 0.00 0.00 98
20260509132624 23 202 4.8 4.8 0.00 0.00 0.00 98
20260509132104 23 212 1.6 4.8 0.00 0.00 0.00 99
20260509131604 23 192 3.2 4.8 0.00 0.00 0.00 99
20260509131104 23 212 3.2 4.8 0.00 0.00 0.00 99
20260509130604 23 207 3.2 4.8 0.00 0.00 0.00 100
20260509130104 23 192 3.2 4.8 0.00 0.00 0.00 100
20260509125604 23 158 3.2 4.8 0.00 0.00 0.00 100
20260509125104 23 254 1.6 3.2 0.00 0.00 0.00 100
20260509124604 23 208 3.2 4.8 0.00 0.00 0.00 100
20260509124125 23 247 3.2 3.2 0.00 0.00 0.00 100
20260509123605 23 118 1.6 3.2 0.00 0.00 0.00 100
20260509123105 23 206 3.2 3.2 0.00 0.00 0.00 100
20260509122604 23 291 3.2 4.8 0.00 0.00 0.00 100
20260509122125 23 320 1.6 3.2 0.00 0.00 0.00 100
20260509121605 23 291 1.6 3.2 0.00 0.00 0.00 100
20260509121105 23 316 1.6 3.2 0.00 0.00 0.00 100
20260509120605 23 334 1.6 1.6 0.00 0.00 0.00 100
20260509120105 23 323 1.6 3.2 0.00 0.00 0.00 99
20260509115605 23 329 1.6 1.6 0.00 0.00 0.00 99
20260509115106 23 343 1.6 3.2 0.00 0.00 0.00 99
20260509114605 23 340 1.6 3.2 0.00 0.00 0.00 99
20260509114106 23 334 1.6 3.2 0.00 0.00 0.00 99
20260509113606 23 331 1.6 3.2 0.00 0.00 0.00 99
20260509113106 23 344 3.2 3.2 0.00 0.00 0.00 99
20260509112606 23 304 1.6 1.6 0.00 0.00 0.00 99
20260509112106 23 327 1.6 3.2 0.00 0.00 0.00 99
20260509111606 23 349 3.2 3.2 0.00 0.00 0.00 99
20260509111106 23 222 3.2 3.2 0.00 0.00 0.00 99
20260509110606 23 196 4.8 4.8 0.00 0.00 0.00 99
20260509110106 23 264 4.8 4.8 0.00 0.00 0.00 99
20260509105606 23 296 1.6 1.6 0.00 0.00 0.00 99
20260509105126 23 318 1.6 1.6 0.00 0.00 0.00 99
20260509104606 23 335 1.6 3.2 0.00 0.00 0.00 99
20260509104108 23 327 1.6 1.6 0.00 0.00 0.00 99
20260509103606 23 222 3.2 4.8 0.00 0.00 0.00 99
20260509103112 23 224 1.6 3.2 0.00 0.00 0.00 99
20260509102606 23 318 1.6 1.6 0.00 0.00 0.00 99
20260509102107 23 178 1.6 3.2 0.00 0.00 0.00 98
20260509101647 23 261 1.6 3.2 0.00 0.00 0.00 98
20260509101107 23 292 1.6 3.2 0.00 0.00 0.00 98
20260509100627 23 265 1.6 1.6 0.00 0.00 0.00 98
20260509100107 23 286 1.6 1.6 0.00 0.00 0.00 98
20260509095607 23 347 1.6 1.6 0.00 0.00 0.00 98
20260509095107 23 323 1.6 1.6 0.00 0.00 0.00 98
20260509094607 23 337 1.6 1.6 0.00 0.00 0.00 98
20260509094107 23 332 1.6 1.6 0.00 0.00 0.00 99
20260509093628 23 316 0.0 1.6 0.00 0.00 0.00 99
20260509093108 23 335 0.0 1.6 0.00 0.00 0.00 99
20260509092608 23 5 1.6 3.2 0.00 0.00 0.00 99
20260509092108 23 17 1.6 3.2 0.00 0.00 0.00 99
20260509091608 23 60 3.2 3.2 0.00 0.00 0.00 99
20260509091108 23 358 1.6 1.6 0.00 0.00 0.00 99
20260509090608 23 326 1.6 1.6 0.00 0.00 0.00 99
20260509090148 23 279 1.6 1.6 0.00 0.00 0.00 99
20260509085608 23 278 1.6 1.6 0.00 0.00 0.00 99
20260509085108 23 326 1.6 1.6 0.00 0.00 0.00 99
20260509084608 23 323 1.6 1.6 0.00 0.00 0.00 99
20260509084109 23 207 1.6 3.2 0.00 0.00 0.00 99
20260509083629 23 299 1.6 3.2 0.00 0.00 0.00 99